Flight Track Log - Related Links

Times and Time Zones

All times are in EDT time to prevent confusion due to time zone crossing. See the FLG3408 flight status page for this flight to view local times or setup timezone preferences in your user account.

Time Position Orientation Groundspeed Altitude Reporting Facility
EDT Latitude Longitude Course Direction KTS MPH feet Rate Location/Type
06:37AM 39.0500 -84.7000 270° West 167 192 1,800  Level Cincinnati TRACON
06:38AM 39.0500 -84.7167 270° West 166 191 3,000 2,200 Climbing Cincinnati TRACON
06:39AM 39.1000 -84.7500 333° Northwest 254 292 5,100 2,370 Climbing Cincinnati TRACON
06:40AM 39.1589 -84.7292 15° North 276 318 7,700 2,750 Climbing Indianapolis Center
06:41AM 39.2389 -84.7003 16° North 292 336 10,600 2,231 Climbing Indianapolis Center
06:42AM 39.3344 -84.6703 14° North 339 390 12,200 1,721 Climbing Indianapolis Center
06:43AM 39.4433 -84.6350 14° North 389 448 14,100 2,066 Climbing Indianapolis Center
06:44AM 39.5581 -84.5983 14° North 413 475 16,400 2,083 Climbing Indianapolis Center
06:45AM 39.6725 -84.5494 18° North 426 490 18,300 1,835 Climbing Indianapolis Center
06:46AM 39.7906 -84.4972 19° North 439 505 20,100 1,820 Climbing Indianapolis Center
06:47AM 39.9108 -84.4444 19° North 448 516 22,000 1,426 Climbing Indianapolis Center
06:48AM 40.0369 -84.4000 15° North 461 531 23,000 492 Climbing Indianapolis Center
06:49AM 40.1719 -84.4014 360° North 479 551 23,000  Level Indianapolis Center
06:50AM 40.3036 -84.4061 358° North 472 543 23,000  Level Indianapolis Center
06:51AM 40.4353 -84.4092 359° North 468 539 23,000  Level Indianapolis Center
06:52AM 40.5650 -84.4117 359° North 464 534 23,000  Level Indianapolis Center
06:53AM 40.6950 -84.4158 359° North 463 533 23,000  Level Indianapolis Center
06:54AM 40.8222 -84.4200 359° North 457 526 23,000  Level Indianapolis Center
06:55AM 40.9497 -84.4225 359° North 455 524 23,000 -446 Level Indianapolis Center
06:56AM 41.0786 -84.4272 358° North 458 527 22,100 -1,140 Descending Indianapolis Center
06:57AM 41.2067 -84.4297 359° North 457 526 20,700 -1,453 Descending Indianapolis Center
06:58AM 41.2803 -84.4325 358° North 451 519 19,800 -1,404 Descending Cleveland Center
06:59AM 41.3992 -84.4283 North 437 503 18,500 -1,250 Descending Cleveland Center
07:00AM 41.4978 -84.3456 32° Northeast 400 460 17,300 -1,389 Descending Cleveland Center
07:00AM 41.5753 -84.2694 36° Northeast 414 476 16,000 -1,625 Descending Cleveland Center
07:01AM 41.6569 -84.1992 33° Northeast 412 474 14,700 -1,500 Descending Cleveland Center
07:02AM 41.7578 -84.1103 33° Northeast 405 466 13,100 -1,157 Descending Cleveland Center
07:04AM 41.8550 -83.9928 42° Northeast 380 437 12,000 -485 Descending Cleveland Center
07:05AM 41.9211 -83.8736 53° Northeast 371 427 12,000  Level Cleveland Center
07:05AM 41.9736 -83.7869 51° Northeast 376 433 12,000 -212 Level Cleveland Center
07:06AM 42.0447 -83.7036 41° Northeast 279 321 11,600 -448 Descending Cleveland Center
07:08AM 42.1069 -83.6367 39° Northeast 286 329 11,000 -283 Descending Cleveland Center
07:09AM 42.1628 -83.5750 39° Northeast 266 306 11,000  Level Cleveland Center
07:10AM 42.2186 -83.5158 38° Northeast 256 295 11,000 -195 Level Cleveland Center
07:11AM 42.2864 -83.4658 29° Northeast 263 303 10,600 -774 Descending Cleveland Center
07:12AM 42.3561 -83.4353 18° North 250 288 9,400 -1,279 Descending Cleveland Center
07:13AM 42.4214 -83.4044 19° North 250 288 8,000 -1,180 Descending Cleveland Center
07:14AM 42.4869 -83.3708 21° North 249 287 7,000 -517 Descending Cleveland Center
07:15AM 42.5458 -83.3422 20° North 228 262 7,000 -517 Level Cleveland Center
07:16AM 42.5986 -83.3192 18° North 201 231 6,000 -1,279 Descending Cleveland Center
07:17AM 42.5961 -83.2486 93° East 196 226 4,400 -984 Descending Cleveland Center
07:18AM 42.5556 -83.1961 136° Southeast 180 207 4,000 -195 Descending Cleveland Center
07:19AM 42.5103 -83.1717 158° South 176 203 4,000  Level Cleveland Center
07:20AM 42.4642 -83.1811 189° South 171 197 4,000  Level Cleveland Center
07:21AM 42.4219 -83.2103 207° Southwest 171 197 4,000 -49 Level Cleveland Center
07:22AM 42.3794 -83.2422 209° Southwest 166 191 3,900 -541 Descending Cleveland Center
07:23AM 42.3369 -83.2714 207° Southwest 163 188 2,900 -885 Descending Cleveland Center
07:24AM 42.3008 -83.3036 213° Southwest 160 184 2,100 -738 Descending Cleveland Center
07:25AM 42.2669 -83.3275 208° Southwest 125 144 1,400 -639 Descending Cleveland Center
07:26AM 42.2331 -83.3483 204° Southwest 129 148 800 -590 Descending Cleveland Center

Login

Don't have an account? Register now (free) for customized features, flight alerts, and more!